• In Italy
  • List of Countries
  • For 7 days
  • Water Temperature
  • Satellite Maps
  • Weather Map
  • Weather Widgets
  • user-avatar
    Login

    Hourly Weather Wlora

    Today, 22 September, Friday

    Time Temperature Precipitation Wind Pressure Humidity
    00:00 +15°C° 0 mm 5 mps 763 mmHg 75%
    01:00 +15°C° 0 mm 5 mps 763 mmHg 74%
    02:00 +15°C° 0 mm 5 mps 763 mmHg 74%
    03:00 +15°C° 0 mm 5 mps 763 mmHg 74%
    04:00 +15°C° 0 mm 6 mps 763 mmHg 73%
    05:00 +16°C° 0 mm 5 mps 763 mmHg 71%
    06:00 +16°C° 0 mm 5 mps 764 mmHg 68%
    07:00 +17°C° 0 mm 5 mps 764 mmHg 62%
    08:00 +20°C° 0 mm 5 mps 764 mmHg 55%
    09:00 +21°C° 0 mm 5 mps 764 mmHg 47%
    10:00 +22°C° 0 mm 5 mps 764 mmHg 40%
    11:00 +22°C° 0 mm 6 mps 764 mmHg 39%
    12:00 +23°C° 0 mm 6 mps 764 mmHg 39%
    13:00 +23°C° 0 mm 6 mps 764 mmHg 38%
    14:00 +23°C° 0 mm 6 mps 764 mmHg 41%
    15:00 +22°C° 0 mm 6 mps 764 mmHg 44%
    16:00 +22°C° 0 mm 6 mps 764 mmHg 46%
    17:00 +21°C° 0 mm 6 mps 765 mmHg 51%
    18:00 +19°C° 0 mm 5 mps 765 mmHg 56%
    19:00 +17°C° 0 mm 5 mps 765 mmHg 61%
    20:00 +17°C° 0 mm 4 mps 765 mmHg 63%
    21:00 +17°C° 0 mm 4 mps 765 mmHg 64%
    22:00 +17°C° 0 mm 3 mps 765 mmHg 66%
    23:00 +16°C° 0 mm 3 mps 766 mmHg 67%

    Tomorrow, 23 September, Saturday

    Time Temperature Precipitation Wind Pressure Humidity
    00:00 +16°C° 0 mm 3 mps 766 mmHg 67%
    01:00 +16°C° 0 mm 3 mps 766 mmHg 68%
    02:00 +16°C° 0 mm 3 mps 765 mmHg 67%
    03:00 +14°C° 0 mm 3 mps 765 mmHg 67%
    04:00 +14°C° 0 mm 3 mps 765 mmHg 66%
    05:00 +16°C° 0 mm 3 mps 765 mmHg 63%
    06:00 +17°C° 0 mm 3 mps 765 mmHg 60%
    07:00 +18°C° 0 mm 3 mps 765 mmHg 57%
    08:00 +20°C° 0 mm 2 mps 766 mmHg 51%
    09:00 +21°C° 0 mm 2 mps 766 mmHg 45%
    10:00 +24°C° 0 mm 2 mps 766 mmHg 38%
    11:00 +25°C° 0 mm 2 mps 765 mmHg 37%
    12:00 +26°C° 0 mm 2 mps 765 mmHg 36%
    13:00 +26°C° 0 mm 3 mps 765 mmHg 35%
    14:00 +26°C° 0 mm 3 mps 765 mmHg 38%
    15:00 +26°C° 0 mm 3 mps 765 mmHg 40%
    16:00 +26°C° 0 mm 3 mps 764 mmHg 43%
    17:00 +24°C° 0 mm 3 mps 764 mmHg 48%
    18:00 +21°C° 0 mm 2 mps 765 mmHg 54%
    19:00 +20°C° 0 mm 2 mps 765 mmHg 59%
    20:00 +20°C° 0 mm 2 mps 765 mmHg 59%
    21:00 +19°C° 0 mm 2 mps 765 mmHg 59%
    22:00 +20°C° 0 mm 1 mps 765 mmHg 59%
    23:00 +20°C° 0 mm 1 mps 765 mmHg 59%

    Day after tomorrow, 24 September, Sunday

    Time Temperature Precipitation Wind Pressure Humidity
    00:00 +20°C° 0 mm 1 mps 765 mmHg 58%
    01:00 +20°C° 0 mm 1 mps 764 mmHg 58%
    02:00 +20°C° 0 mm 1 mps 764 mmHg 58%
    03:00 +20°C° 0 mm 1 mps 764 mmHg 58%
    04:00 +20°C° 0 mm 1 mps 763 mmHg 57%
    05:00 +19°C° 0 mm 2 mps 763 mmHg 56%
    06:00 +20°C° 0 mm 2 mps 764 mmHg 55%
    07:00 +20°C° 0 mm 2 mps 764 mmHg 54%
    08:00 +23°C° 0 mm 2 mps 764 mmHg 48%
    09:00 +25°C° 0 mm 3 mps 764 mmHg 42%
    10:00 +26°C° 0 mm 3 mps 764 mmHg 36%
    11:00 +27°C° 0 mm 3 mps 763 mmHg 35%
    12:00 +27°C° 0 mm 3 mps 763 mmHg 34%
    13:00 +28°C° 0 mm 4 mps 763 mmHg 33%
    14:00 +27°C° 0 mm 4 mps 763 mmHg 36%
    15:00 +27°C° 0 mm 3 mps 762 mmHg 38%
    16:00 +27°C° 0 mm 3 mps 762 mmHg 41%
    17:00 +25°C° 0 mm 3 mps 762 mmHg 47%
    18:00 +24°C° 0 mm 3 mps 762 mmHg 53%
    19:00 +21°C° 0 mm 3 mps 763 mmHg 58%
    20:00 +21°C° 0 mm 3 mps 763 mmHg 59%
    21:00 +20°C° 0 mm 3 mps 763 mmHg 61%
    22:00 +20°C° 0 mm 3 mps 763 mmHg 62%
    23:00 +20°C° 0 mm 3 mps 763 mmHg 62%

    25 September, Monday

    Time Temperature Precipitation Wind Pressure Humidity
    00:00 +20°C° 0 mm 3 mps 762 mmHg 61%
    01:00 +19°C° 0 mm 4 mps 762 mmHg 61%
    02:00 +19°C° 0.1 mm 4 mps 762 mmHg 60%
    03:00 +19°C° 0.1 mm 4 mps 762 mmHg 58%
    04:00 +19°C° 0.1 mm 4 mps 762 mmHg 57%
    05:00 +20°C° 0.2 mm 4 mps 762 mmHg 56%
    06:00 +20°C° 0.2 mm 5 mps 762 mmHg 55%
    07:00 +21°C° 0.2 mm 5 mps 762 mmHg 54%
    08:00 +22°C° 0.2 mm 6 mps 762 mmHg 52%
    09:00 +23°C° 0.2 mm 6 mps 762 mmHg 50%
    10:00 +23°C° 0.2 mm 7 mps 762 mmHg 47%
    11:00 +23°C° 0.4 mm 7 mps 762 mmHg 49%
    12:00 +23°C° 0.4 mm 7 mps 762 mmHg 51%
    13:00 +23°C° 0.4 mm 7 mps 762 mmHg 52%
    14:00 +22°C° 0.1 mm 7 mps 762 mmHg 55%
    15:00 +22°C° 0.1 mm 6 mps 762 mmHg 58%
    16:00 +21°C° 0.1 mm 6 mps 762 mmHg 61%
    17:00 +21°C° 0 mm 5 mps 762 mmHg 64%
    18:00 +20°C° 0 mm 4 mps 762 mmHg 67%
    19:00 +19°C° 0 mm 4 mps 762 mmHg 70%
    20:00 +19°C° 0 mm 3 mps 763 mmHg 70%
    21:00 +19°C° 0 mm 3 mps 763 mmHg 71%
    22:00 +19°C° 0 mm 3 mps 763 mmHg 72%
    23:00 +19°C° 0 mm 3 mps 763 mmHg 72%

    26 September, Tuesday

    Time Temperature Precipitation Wind Pressure Humidity
    00:00 +19°C° 0 mm 3 mps 763 mmHg 71%
    01:00 +19°C° 0 mm 3 mps 763 mmHg 71%
    02:00 +18°C° 0 mm 3 mps 762 mmHg 71%
    03:00 +18°C° 0 mm 3 mps 762 mmHg 72%
    04:00 +18°C° 0 mm 3 mps 762 mmHg 73%
    05:00 +18°C° 0 mm 3 mps 762 mmHg 70%
    06:00 +19°C° 0 mm 3 mps 763 mmHg 67%
    07:00 +20°C° 0 mm 3 mps 763 mmHg 64%
    08:00 +22°C° 0 mm 3 mps 763 mmHg 57%
    09:00 +25°C° 0 mm 2 mps 763 mmHg 51%
    10:00 +27°C° 0 mm 2 mps 763 mmHg 44%
    11:00 +27°C° 0 mm 3 mps 763 mmHg 43%
    12:00 +27°C° 0 mm 3 mps 762 mmHg 42%
    13:00 +28°C° 0 mm 4 mps 762 mmHg 41%
    14:00 +27°C° 0 mm 4 mps 762 mmHg 44%
    15:00 +27°C° 0 mm 4 mps 762 mmHg 47%
    16:00 +26°C° 0 mm 4 mps 762 mmHg 49%
    17:00 +25°C° 0 mm 4 mps 762 mmHg 55%
    18:00 +23°C° 0 mm 4 mps 763 mmHg 61%
    19:00 +21°C° 0 mm 4 mps 763 mmHg 67%
    20:00 +21°C° 0 mm 3 mps 763 mmHg 67%
    21:00 +21°C° 0 mm 3 mps 763 mmHg 67%
    22:00 +20°C° 0 mm 3 mps 763 mmHg 67%
    23:00 +20°C° 0 mm 3 mps 763 mmHg 67%

    27 September, Wednesday

    Time Temperature Precipitation Wind Pressure Humidity
    00:00 +20°C° 0 mm 2 mps 763 mmHg 67%
    01:00 +20°C° 0 mm 2 mps 763 mmHg 67%
    02:00 +20°C° 0 mm 2 mps 763 mmHg 67%
    03:00 +19°C° 0 mm 2 mps 763 mmHg 67%
    04:00 +19°C° 0 mm 2 mps 763 mmHg 67%
    05:00 +20°C° 0 mm 2 mps 763 mmHg 64%
    06:00 +20°C° 0 mm 2 mps 764 mmHg 62%
    07:00 +21°C° 0 mm 2 mps 764 mmHg 59%
    08:00 +24°C° 0 mm 2 mps 764 mmHg 54%
    09:00 +26°C° 0 mm 1 mps 764 mmHg 48%
    10:00 +27°C° 0 mm 1 mps 764 mmHg 43%
    11:00 +28°C° 0 mm 1 mps 764 mmHg 43%
    12:00 +28°C° 0 mm 2 mps 764 mmHg 43%
    13:00 +28°C° 0 mm 2 mps 764 mmHg 43%
    14:00 +27°C° 0 mm 2 mps 764 mmHg 46%
    15:00 +27°C° 0 mm 2 mps 764 mmHg 49%
    16:00 +26°C° 0 mm 2 mps 764 mmHg 52%
    17:00 +25°C° 0 mm 2 mps 764 mmHg 58%
    18:00 +24°C° 0 mm 2 mps 764 mmHg 64%
    19:00 +23°C° 0 mm 2 mps 764 mmHg 70%
    20:00 +21°C° 0 mm 2 mps 764 mmHg 70%
    21:00 +21°C° 0 mm 2 mps 764 mmHg 69%
    22:00 +21°C° 0 mm 2 mps 764 mmHg 69%
    23:00 +21°C° 0.1 mm 2 mps 764 mmHg 69%
    Show more